Location: Cosy Dell
(34.2789°N, 117.4537°W)
Time: 12:04:30
(UTC+00:00)

Cosmos 1943 - Pass Details

Date: 14 July 2020
Orbit: 835 x 848 km, 71.0° (Epoch: 08 August)

Event Time Altitude Azimuth Distance (km) Brightness Sun altitude
Exits shadow 07:06:52 51° 337° (NNW) 1,051 3.9 -32.9°
Drops below altitude 10° 07:11:25 10° 13° (NNE) 2,465 6.3 -33.1°
Sets 07:13:54 0° 17° (NNE) 3,401 7.2 -33.3°
